Time,TemperatureF,DewpointF,PressureIn,WindDirection,WindDirectionDegrees,WindSpeedMPH,WindSpeedGustMPH,Humidity,HourlyPrecipIn,Conditions,Clouds,dailyrainin,SoftwareType,DateUTC
2013-07-23 00:03:00,66.9,56.8,29.82,NNE,19,0.0,2.0,70,0.00,,,0.00,VWS V14.01,2013-07-23 05:03:00,
2013-07-23 00:08:00,66.7,56.6,29.81,NNE,26,0.0,1.0,70,0.00,,,0.00,VWS V14.01,2013-07-23 05:08:00,
2013-07-23 00:13:00,66.5,56.8,29.81,NNW,348,0.0,1.0,71,0.00,,,0.00,VWS V14.01,2013-07-23 05:13:00,
2013-07-23 00:18:00,66.3,56.6,29.81,NW,326,0.0,2.0,71,0.00,,,0.00,VWS V14.01,2013-07-23 05:18:00,
2013-07-23 00:23:00,66.1,56.8,29.81,NNW,327,0.0,2.0,72,0.00,,,0.00,VWS V14.01,2013-07-23 05:23:00,
2013-07-23 00:29:00,65.9,56.6,29.81,WSW,251,0.0,2.0,72,0.00,,,0.00,VWS V14.01,2013-07-23 05:29:00,
2013-07-23 00:33:00,65.8,56.5,29.81,NNE,31,0.0,3.0,72,0.00,,,0.00,VWS V14.01,2013-07-23 05:33:00,
2013-07-23 00:38:00,65.7,56.8,29.82,NNW,343,0.0,3.0,73,0.00,,,0.00,VWS V14.01,2013-07-23 05:38:00,
2013-07-23 00:43:00,65.6,56.7,29.82,NNW,333,0.0,3.0,73,0.00,,,0.00,VWS V14.01,2013-07-23 05:43:00,
2013-07-23 00:49:00,65.4,56.5,29.82,NNW,333,0.0,3.0,73,0.00,,,0.00,VWS V14.01,2013-07-23 05:49:00,
2013-07-23 00:54:00,65.3,56.8,29.82,NNW,332,0.0,3.0,74,0.00,,,0.00,VWS V14.01,2013-07-23 05:54:00,
2013-07-23 00:59:00,65.2,56.7,29.82,NNW,333,0.0,3.0,74,0.00,,,0.00,VWS V14.01,2013-07-23 05:59:00,
2013-07-23 01:04:00,65.0,56.9,29.82,NNW,332,0.0,3.0,75,0.00,,,0.00,VWS V14.01,2013-07-23 06:04:00,
2013-07-23 01:09:00,64.7,57.0,29.81,NNW,345,1.0,2.0,76,0.00,,,0.00,VWS V14.01,2013-07-23 06:09:00,
2013-07-23 01:14:00,64.5,56.8,29.81,NNW,345,0.0,2.0,76,0.00,,,0.00,VWS V14.01,2013-07-23 06:14:00,
2013-07-23 01:19:00,64.5,57.1,29.81,NE,43,0.0,2.0,77,0.00,,,0.00,VWS V14.01,2013-07-23 06:19:00,
2013-07-23 01:24:00,64.5,57.1,29.81,NE,48,0.0,2.0,77,0.00,,,0.00,VWS V14.01,2013-07-23 06:24:00,
2013-07-23 01:29:00,64.4,57.4,29.81,South,185,0.0,2.0,78,0.00,,,0.00,VWS V14.01,2013-07-23 06:29:00,
2013-07-23 01:35:00,64.3,57.3,29.81,South,185,0.0,0.0,78,0.00,,,0.00,VWS V14.01,2013-07-23 06:35:00,
2013-07-23 01:40:00,64.2,57.2,29.81,SSW,198,0.0,1.0,78,0.00,,,0.00,VWS V14.01,2013-07-23 06:40:00,
2013-07-23 01:45:00,64.1,57.5,29.81,SSW,207,0.0,1.0,79,0.00,,,0.00,VWS V14.01,2013-07-23 06:45:00,
2013-07-23 01:50:00,64.0,57.4,29.82,SW,218,0.0,1.0,79,0.00,,,0.00,VWS V14.01,2013-07-23 06:50:00,
2013-07-23 01:55:00,64.0,57.0,29.82,NE,43,2.0,4.0,78,0.00,,,0.00,VWS V14.01,2013-07-23 06:55:00,
2013-07-23 02:00:00,64.1,56.8,29.82,WNW,299,0.0,5.0,77,0.00,,,0.00,VWS V14.01,2013-07-23 07:00:00,
2013-07-23 02:05:00,64.3,57.3,29.82,East,96,0.0,4.0,78,0.00,,,0.00,VWS V14.01,2013-07-23 07:05:00,
2013-07-23 02:10:00,64.5,56.8,29.82,WNW,290,1.0,6.0,76,0.00,,,0.00,VWS V14.01,2013-07-23 07:10:00,
2013-07-23 02:15:00,64.6,56.5,29.82,North,10,1.0,6.0,75,0.00,,,0.00,VWS V14.01,2013-07-23 07:15:00,
2013-07-23 02:20:00,64.7,56.6,29.82,NE,52,0.0,6.0,75,0.00,,,0.00,VWS V14.01,2013-07-23 07:20:00,
2013-07-23 02:26:00,64.6,56.9,29.83,NW,311,0.0,6.0,76,0.00,,,0.00,VWS V14.01,2013-07-23 07:26:00,
2013-07-23 02:31:00,64.5,56.4,29.83,NW,313,0.0,6.0,75,0.00,,,0.00,VWS V14.01,2013-07-23 07:31:00,
2013-07-23 02:36:00,64.5,56.8,29.83,NE,38,0.0,1.0,76,0.00,,,0.00,VWS V14.01,2013-07-23 07:36:00,
2013-07-23 02:41:00,64.4,56.7,29.83,NNE,30,0.0,3.0,76,0.00,,,0.00,VWS V14.01,2013-07-23 07:41:00,
2013-07-23 02:46:00,64.3,56.6,29.83,NNE,33,0.0,3.0,76,0.00,,,0.00,VWS V14.01,2013-07-23 07:46:00,
2013-07-23 02:51:00,64.2,56.5,29.83,NNW,348,0.0,4.0,76,0.00,,,0.00,VWS V14.01,2013-07-23 07:51:00,
2013-07-23 02:56:00,64.2,56.5,29.83,South,190,0.0,4.0,76,0.00,,,0.00,VWS V14.01,2013-07-23 07:56:00,
2013-07-23 03:01:00,64.2,56.1,29.83,NE,42,0.0,5.0,75,0.00,,,0.00,VWS V14.01,2013-07-23 08:01:00,
2013-07-23 03:06:00,64.1,56.4,29.83,NE,44,0.0,1.0,76,0.00,,,0.00,VWS V14.01,2013-07-23 08:06:00,
2013-07-23 03:11:00,64.0,56.3,29.83,NW,307,0.0,3.0,76,0.00,,,0.00,VWS V14.01,2013-07-23 08:11:00,
2013-07-23 03:16:00,63.9,56.2,29.83,NW,313,0.0,3.0,76,0.00,,,0.00,VWS V14.01,2013-07-23 08:16:00,
2013-07-23 03:22:00,63.8,56.1,29.83,NNW,340,0.0,6.0,76,0.00,,,0.00,VWS V14.01,2013-07-23 08:22:00,
2013-07-23 03:27:00,63.7,56.0,29.83,NE,34,0.0,6.0,76,0.00,,,0.00,VWS V14.01,2013-07-23 08:27:00,
2013-07-23 03:32:00,63.5,56.2,29.83,North,4,0.0,6.0,77,0.00,,,0.00,VWS V14.01,2013-07-23 08:32:00,
2013-07-23 03:37:00,63.4,56.1,29.83,ENE,75,4.0,4.0,77,0.00,,,0.00,VWS V14.01,2013-07-23 08:37:00,
2013-07-23 03:42:00,63.2,55.9,29.83,NNE,12,0.0,4.0,77,0.00,,,0.00,VWS V14.01,2013-07-23 08:42:00,
2013-07-23 03:47:00,63.2,55.9,29.84,NW,310,0.0,4.0,77,0.00,,,0.00,VWS V14.01,2013-07-23 08:47:00,
2013-07-23 03:52:00,63.1,55.8,29.84,NE,34,0.0,4.0,77,0.00,,,0.00,VWS V14.01,2013-07-23 08:52:00,
2013-07-23 03:57:00,62.9,55.9,29.84,WSW,250,0.0,4.0,78,0.00,,,0.00,VWS V14.01,2013-07-23 08:57:00,
2013-07-23 04:02:00,62.7,55.8,29.84,ENE,69,1.0,4.0,78,0.00,,,0.00,VWS V14.01,2013-07-23 09:02:00,
2013-07-23 04:08:00,62.7,55.8,29.84,NE,54,0.0,3.0,78,0.00,,,0.00,VWS V14.01,2013-07-23 09:08:00,
2013-07-23 04:10:00,62.6,56.0,29.84,NE,54,0.0,3.0,79,0.00,,,0.00,VWS V14.01,2013-07-23 09:10:00,
2013-07-23 04:15:00,62.5,55.9,29.85,NNW,343,1.0,4.0,79,0.00,,,0.00,VWS V14.01,2013-07-23 09:15:00,
2013-07-23 04:20:00,62.4,55.8,29.85,NNW,347,0.0,4.0,79,0.00,,,0.00,VWS V14.01,2013-07-23 09:20:00,
2013-07-23 04:25:00,62.3,56.1,29.85,NE,46,1.0,4.0,80,0.00,,,0.00,VWS V14.01,2013-07-23 09:25:00,
2013-07-23 04:30:00,62.1,55.9,29.85,WNW,301,0.0,4.0,80,0.00,,,0.00,VWS V14.01,2013-07-23 09:30:00,
2013-07-23 04:35:00,62.0,55.8,29.85,NNE,12,1.0,1.0,80,0.00,,,0.00,VWS V14.01,2013-07-23 09:35:00,
2013-07-23 04:40:00,61.9,55.7,29.85,WNW,296,0.0,3.0,80,0.00,,,0.00,VWS V14.01,2013-07-23 09:40:00,
2013-07-23 04:45:00,61.8,55.9,29.85,NW,322,1.0,3.0,81,0.00,,,0.00,VWS V14.01,2013-07-23 09:45:00,
2013-07-23 04:50:00,61.7,55.8,29.86,North,4,0.0,3.0,81,0.00,,,0.00,VWS V14.01,2013-07-23 09:50:00,
2013-07-23 04:55:00,61.6,55.7,29.86,ENE,68,1.0,3.0,81,0.00,,,0.00,VWS V14.01,2013-07-23 09:55:00,
2013-07-23 05:00:00,61.5,55.6,29.86,NNE,28,0.0,5.0,81,0.00,,,0.00,VWS V14.01,2013-07-23 10:00:00,
2013-07-23 05:06:00,61.4,55.5,29.86,NW,315,1.0,3.0,81,0.00,,,0.00,VWS V14.01,2013-07-23 10:06:00,
2013-07-23 05:11:00,61.4,55.5,29.86,NNE,27,0.0,3.0,81,0.00,,,0.00,VWS V14.01,2013-07-23 10:11:00,
2013-07-23 05:16:00,61.4,55.5,29.87,NNE,25,0.0,3.0,81,0.00,,,0.00,VWS V14.01,2013-07-23 10:16:00,
2013-07-23 05:21:00,61.3,55.8,29.87,NE,56,0.0,3.0,82,0.00,,,0.00,VWS V14.01,2013-07-23 10:21:00,
2013-07-23 05:26:00,61.2,55.7,29.87,NNW,331,0.0,4.0,82,0.00,,,0.00,VWS V14.01,2013-07-23 10:26:00,
2013-07-23 05:31:00,61.1,55.6,29.87,North,359,0.0,4.0,82,0.00,,,0.00,VWS V14.01,2013-07-23 10:31:00,
2013-07-23 05:36:00,60.9,55.7,29.87,NE,37,2.0,2.0,83,0.00,,,0.00,VWS V14.01,2013-07-23 10:36:00,
2013-07-23 05:41:00,60.8,55.6,29.87,NNW,335,0.0,3.0,83,0.00,,,0.00,VWS V14.01,2013-07-23 10:41:00,
2013-07-23 05:46:00,60.7,55.5,29.87,WNW,303,0.0,3.0,83,0.00,,,0.00,VWS V14.01,2013-07-23 10:46:00,
2013-07-23 05:52:00,60.6,55.8,29.87,North,10,0.0,5.0,84,0.00,,,0.00,VWS V14.01,2013-07-23 10:52:00,
2013-07-23 05:57:00,60.6,55.8,29.87,NE,41,0.0,5.0,84,0.00,,,0.00,VWS V14.01,2013-07-23 10:57:00,
2013-07-23 06:02:00,60.6,55.8,29.88,ENE,59,0.0,5.0,84,0.00,,,0.00,VWS V14.01,2013-07-23 11:02:00,
2013-07-23 06:07:00,60.5,55.7,29.89,ENE,63,1.0,1.0,84,0.00,,,0.00,VWS V14.01,2013-07-23 11:07:00,
2013-07-23 06:12:00,60.4,55.9,29.88,NW,323,0.0,3.0,85,0.00,,,0.00,VWS V14.01,2013-07-23 11:12:00,
2013-07-23 06:17:00,60.4,55.9,29.88,NE,42,0.0,3.0,85,0.00,,,0.00,VWS V14.01,2013-07-23 11:17:00,
2013-07-23 06:22:00,60.4,55.9,29.88,WNW,297,0.0,3.0,85,0.00,,,0.00,VWS V14.01,2013-07-23 11:22:00,
2013-07-23 06:27:00,60.3,55.8,29.89,NE,42,0.0,4.0,85,0.00,,,0.00,VWS V14.01,2013-07-23 11:27:00,
2013-07-23 06:32:00,60.3,55.8,29.89,NNE,29,0.0,4.0,85,0.00,,,0.00,VWS V14.01,2013-07-23 11:32:00,
2013-07-23 06:38:00,60.3,56.1,29.89,NW,325,1.0,3.0,86,0.00,,,0.00,VWS V14.01,2013-07-23 11:38:00,
2013-07-23 06:43:00,60.3,55.8,29.89,NW,324,2.0,3.0,85,0.00,,,0.00,VWS V14.01,2013-07-23 11:43:00,
2013-07-23 06:48:00,60.3,55.8,29.89,NW,324,0.0,3.0,85,0.00,,,0.00,VWS V14.01,2013-07-23 11:48:00,
2013-07-23 06:53:00,60.3,55.8,29.89,North,359,1.0,3.0,85,0.00,,,0.00,VWS V14.01,2013-07-23 11:53:00,
2013-07-23 06:58:00,60.3,55.8,29.89,West,268,1.0,4.0,85,0.00,,,0.00,VWS V14.01,2013-07-23 11:58:00,
2013-07-23 07:03:00,60.3,55.5,29.90,WNW,299,2.0,5.0,84,0.00,,,0.00,VWS V14.01,2013-07-23 12:03:00,
2013-07-23 07:08:00,60.3,55.5,29.90,NNE,28,1.0,4.0,84,0.00,,,0.00,VWS V14.01,2013-07-23 12:08:00,
2013-07-23 07:13:00,60.3,55.5,29.91,NNE,19,0.0,4.0,84,0.00,,,0.00,VWS V14.01,2013-07-23 12:13:00,
2013-07-23 07:18:00,60.3,55.5,29.92,North,8,1.0,4.0,84,0.00,,,0.00,VWS V14.01,2013-07-23 12:18:00,
2013-07-23 07:23:00,60.3,55.5,29.92,NW,314,0.0,4.0,84,0.00,,,0.00,VWS V14.01,2013-07-23 12:23:00,
2013-07-23 07:28:00,60.4,55.5,29.91,NNE,28,1.0,5.0,84,0.00,,,0.00,VWS V14.01,2013-07-23 12:28:00,
2013-07-23 07:33:00,60.4,55.5,29.92,NNE,29,3.0,5.0,84,0.00,,,0.00,VWS V14.01,2013-07-23 12:33:00,
2013-07-23 07:39:00,60.5,55.3,29.92,ENE,64,0.0,4.0,83,0.00,,,0.00,VWS V14.01,2013-07-23 12:39:00,
2013-07-23 07:44:00,60.6,55.8,29.92,NNW,343,1.0,4.0,84,0.00,,,0.00,VWS V14.01,2013-07-23 12:44:00,
2013-07-23 07:49:00,60.7,55.2,29.93,NW,310,2.0,5.0,82,0.00,,,0.00,VWS V14.01,2013-07-23 12:49:00,
2013-07-23 07:54:00,60.9,55.4,29.93,ENE,57,1.0,5.0,82,0.00,,,0.00,VWS V14.01,2013-07-23 12:54:00,
2013-07-23 07:59:00,61.1,55.2,29.93,North,354,4.0,5.0,81,0.00,,,0.00,VWS V14.01,2013-07-23 12:59:00,
2013-07-23 08:04:00,61.3,55.8,29.92,North,4,2.0,2.0,82,0.00,,,0.00,VWS V14.01,2013-07-23 13:04:00,
2013-07-23 08:09:00,61.4,55.5,29.93,ESE,117,0.0,5.0,81,0.00,,,0.00,VWS V14.01,2013-07-23 13:09:00,
2013-07-23 08:14:00,61.6,55.7,29.93,WNW,286,1.0,5.0,81,0.00,,,0.00,VWS V14.01,2013-07-23 13:14:00,
2013-07-23 08:20:00,61.9,55.7,29.93,NW,323,1.0,5.0,80,0.00,,,0.00,VWS V14.01,2013-07-23 13:20:00,
2013-07-23 08:25:00,62.0,55.4,29.93,NNW,331,1.0,5.0,79,0.00,,,0.00,VWS V14.01,2013-07-23 13:25:00,
2013-07-23 08:30:00,62.3,55.7,29.93,West,275,2.0,5.0,79,0.00,,,0.00,VWS V14.01,2013-07-23 13:30:00,
2013-07-23 08:35:00,62.5,55.6,29.92,East,97,0.0,4.0,78,0.00,,,0.00,VWS V14.01,2013-07-23 13:35:00,
2013-07-23 08:40:00,62.9,55.9,29.92,NNE,23,4.0,5.0,78,0.00,,,0.00,VWS V14.01,2013-07-23 13:40:00,
2013-07-23 08:45:00,63.4,56.1,29.92,NW,310,1.0,5.0,77,0.00,,,0.00,VWS V14.01,2013-07-23 13:45:00,
2013-07-23 08:50:00,63.8,57.2,29.92,West,277,0.0,5.0,79,0.00,,,0.00,VWS V14.01,2013-07-23 13:50:00,
2013-07-23 08:55:00,64.5,56.8,29.92,NNW,338,2.0,5.0,76,0.00,,,0.00,VWS V14.01,2013-07-23 13:55:00,
2013-07-23 09:00:00,65.4,57.3,29.92,NW,318,1.0,5.0,75,0.00,,,0.00,VWS V14.01,2013-07-23 14:00:00,
2013-07-23 09:05:00,66.3,58.2,29.91,WNW,297,0.0,4.0,75,0.00,,,0.00,VWS V14.01,2013-07-23 14:05:00,
2013-07-23 09:10:00,67.2,56.7,29.91,NW,308,2.0,5.0,69,0.00,,,0.00,VWS V14.01,2013-07-23 14:10:00,
2013-07-23 09:15:00,68.2,57.7,29.91,WNW,297,1.0,5.0,69,0.00,,,0.00,VWS V14.01,2013-07-23 14:15:00,
2013-07-23 09:21:00,68.9,57.9,29.92,SSE,150,4.0,5.0,68,0.00,,,0.00,VWS V14.01,2013-07-23 14:21:00,
2013-07-23 09:26:00,69.4,57.1,29.92,ENE,61,2.0,8.0,65,0.00,,,0.00,VWS V14.01,2013-07-23 14:26:00,
2013-07-23 09:31:00,69.7,57.0,29.92,WNW,289,4.0,8.0,64,0.00,,,0.00,VWS V14.01,2013-07-23 14:31:00,
2013-07-23 09:36:00,70.0,56.8,29.92,NW,311,1.0,3.0,63,0.00,,,0.00,VWS V14.01,2013-07-23 14:36:00,
2013-07-23 09:41:00,70.4,57.2,29.93,NW,311,1.0,8.0,63,0.00,,,0.00,VWS V14.01,2013-07-23 14:41:00,
2013-07-23 09:46:00,70.9,57.2,29.93,WNW,297,2.0,8.0,62,0.00,,,0.00,VWS V14.01,2013-07-23 14:46:00,
2013-07-23 09:51:00,71.1,57.4,29.93,ESE,107,1.0,8.0,62,0.00,,,0.00,VWS V14.01,2013-07-23 14:51:00,
2013-07-23 09:56:00,71.3,57.2,29.94,North,10,1.0,8.0,61,0.00,,,0.00,VWS V14.01,2013-07-23 14:56:00,
2013-07-23 10:01:00,71.7,56.6,29.94,NW,318,1.0,8.0,59,0.00,,,0.00,VWS V14.01,2013-07-23 15:01:00,
2013-07-23 10:07:00,71.9,55.9,29.94,SW,218,1.0,5.0,57,0.00,,,0.00,VWS V14.01,2013-07-23 15:07:00,
2013-07-23 10:12:00,72.2,57.6,29.94,NNW,328,0.0,5.0,60,0.00,,,0.00,VWS V14.01,2013-07-23 15:12:00,
2013-07-23 10:17:00,72.5,58.8,29.95,WSW,253,2.0,7.0,62,0.00,,,0.00,VWS V14.01,2013-07-23 15:17:00,
2013-07-23 10:22:00,72.8,57.2,29.95,NW,307,2.0,7.0,58,0.00,,,0.00,VWS V14.01,2013-07-23 15:22:00,
2013-07-23 10:27:00,72.9,57.8,29.95,NW,315,1.0,7.0,59,0.00,,,0.00,VWS V14.01,2013-07-23 15:27:00,
2013-07-23 10:32:00,73.1,56.5,29.95,South,189,1.0,7.0,56,0.00,,,0.00,VWS V14.01,2013-07-23 15:32:00,
2013-07-23 10:37:00,73.1,57.0,29.95,SSE,151,2.0,5.0,57,0.00,,,0.00,VWS V14.01,2013-07-23 15:37:00,
2013-07-23 10:42:00,73.1,55.5,29.95,ENE,68,1.0,5.0,54,0.00,,,0.00,VWS V14.01,2013-07-23 15:42:00,
2013-07-23 10:43:00,73.2,55.6,29.95,ENE,64,1.0,5.0,54,0.00,,,0.00,VWS V14.01,2013-07-23 15:43:00,
2013-07-23 10:48:00,73.2,57.5,29.95,North,11,3.0,6.0,58,0.00,,,0.00,VWS V14.01,2013-07-23 15:48:00,
2013-07-23 10:53:00,73.4,57.3,29.95,WNW,287,3.0,6.0,57,0.00,,,0.00,VWS V14.01,2013-07-23 15:53:00,
2013-07-23 10:58:00,73.5,57.3,29.95,NW,320,1.0,6.0,57,0.00,,,0.00,VWS V14.01,2013-07-23 15:58:00,
2013-07-23 11:03:00,73.5,57.3,29.95,NNW,341,1.0,6.0,57,0.00,,,0.00,VWS V14.01,2013-07-23 16:03:00,
2013-07-23 11:08:00,73.8,58.1,29.95,NNW,332,2.0,4.0,58,0.00,,,0.00,VWS V14.01,2013-07-23 16:08:00,
2013-07-23 11:13:00,73.9,55.7,29.95,NW,319,1.0,4.0,53,0.00,,,0.00,VWS V14.01,2013-07-23 16:13:00,
2013-07-23 11:18:00,73.8,55.1,29.95,NW,312,1.0,7.0,52,0.00,,,0.00,VWS V14.01,2013-07-23 16:18:00,
2013-07-23 11:23:00,73.9,56.2,29.96,WNW,282,2.0,7.0,54,0.00,,,0.00,VWS V14.01,2013-07-23 16:23:00,
2013-07-23 11:29:00,73.7,56.0,29.95,NW,308,3.0,7.0,54,0.00,,,0.00,VWS V14.01,2013-07-23 16:29:00,
2013-07-23 11:34:00,73.7,56.0,29.95,East,95,1.0,7.0,54,0.00,,,0.00,VWS V14.01,2013-07-23 16:34:00,
2013-07-23 11:39:00,73.7,56.5,29.96,ENE,76,1.0,5.0,55,0.00,,,0.00,VWS V14.01,2013-07-23 16:39:00,
2013-07-23 11:44:00,73.8,58.6,29.95,WNW,294,4.0,9.0,59,0.00,,,0.00,VWS V14.01,2013-07-23 16:44:00,
2013-07-23 11:49:00,74.0,56.8,29.95,NW,326,2.0,9.0,55,0.00,,,0.00,VWS V14.01,2013-07-23 16:49:00,
2013-07-23 11:54:00,74.2,56.5,29.95,ESE,113,2.0,9.0,54,0.00,,,0.00,VWS V14.01,2013-07-23 16:54:00,
2013-07-23 11:59:00,74.4,56.2,29.96,WNW,293,2.0,9.0,53,0.00,,,0.00,VWS V14.01,2013-07-23 16:59:00,
2013-07-23 12:04:00,74.5,56.8,29.96,North,11,2.0,3.0,54,0.00,,,0.00,VWS V14.01,2013-07-23 17:04:00,
2013-07-23 12:09:00,74.5,57.8,29.96,WNW,295,0.0,4.0,56,0.00,,,0.00,VWS V14.01,2013-07-23 17:09:00,
2013-07-23 12:14:00,74.4,56.7,29.95,North,349,1.0,6.0,54,0.00,,,0.00,VWS V14.01,2013-07-23 17:14:00,
2013-07-23 12:19:00,74.3,56.1,29.96,NE,50,1.0,6.0,53,0.00,,,0.00,VWS V14.01,2013-07-23 17:19:00,
2013-07-23 12:25:00,74.3,55.0,29.96,North,4,1.0,6.0,51,0.00,,,0.00,VWS V14.01,2013-07-23 17:25:00,
2013-07-23 12:30:00,74.4,56.7,29.96,WNW,301,2.0,8.0,54,0.00,,,0.00,VWS V14.01,2013-07-23 17:30:00,
2013-07-23 12:35:00,74.4,56.2,29.96,WNW,298,2.0,8.0,53,0.00,,,0.00,VWS V14.01,2013-07-23 17:35:00,
2013-07-23 12:40:00,74.4,55.7,29.96,South,179,1.0,3.0,52,0.00,,,0.00,VWS V14.01,2013-07-23 17:40:00,
2013-07-23 12:45:00,74.4,57.2,29.96,NW,308,3.0,6.0,55,0.00,,,0.00,VWS V14.01,2013-07-23 17:45:00,
2013-07-23 12:50:00,74.3,56.1,29.96,SE,139,0.0,6.0,53,0.00,,,0.00,VWS V14.01,2013-07-23 17:50:00,
2013-07-23 12:55:00,74.3,54.5,29.95,WNW,297,3.0,6.0,50,0.00,,,0.00,VWS V14.01,2013-07-23 17:55:00,
2013-07-23 13:00:00,74.3,54.5,29.95,NE,54,1.0,7.0,50,0.00,,,0.00,VWS V14.01,2013-07-23 18:00:00,
2013-07-23 13:06:00,74.4,55.7,29.95,NW,313,1.0,4.0,52,0.00,,,0.00,VWS V14.01,2013-07-23 18:06:00,
2013-07-23 13:11:00,74.5,55.2,29.95,ENE,72,1.0,4.0,51,0.00,,,0.00,VWS V14.01,2013-07-23 18:11:00,
2013-07-23 13:16:00,74.5,55.7,29.95,NE,50,2.0,7.0,52,0.00,,,0.00,VWS V14.01,2013-07-23 18:16:00,
2013-07-23 13:21:00,74.6,55.3,29.95,NE,46,1.0,7.0,51,0.00,,,0.00,VWS V14.01,2013-07-23 18:21:00,
2013-07-23 13:27:00,74.7,56.5,29.95,NW,318,5.0,7.0,53,0.00,,,0.00,VWS V14.01,2013-07-23 18:27:00,
2013-07-23 13:32:00,74.7,55.4,29.95,NW,312,0.0,7.0,51,0.00,,,0.00,VWS V14.01,2013-07-23 18:32:00,
2013-07-23 13:37:00,74.8,54.4,29.94,SE,141,3.0,3.0,49,0.00,,,0.00,VWS V14.01,2013-07-23 18:37:00,
2013-07-23 13:44:00,74.7,55.4,29.94,NW,308,1.0,4.0,51,0.00,,,0.00,VWS V14.01,2013-07-23 18:44:00,
2013-07-23 13:49:00,74.8,57.6,29.94,West,274,1.0,4.0,55,0.00,,,0.00,VWS V14.01,2013-07-23 18:49:00,
2013-07-23 13:54:00,75.2,56.4,29.95,ENE,62,1.0,5.0,52,0.00,,,0.00,VWS V14.01,2013-07-23 18:54:00,
2013-07-23 13:59:00,75.5,57.2,29.94,South,183,1.0,5.0,53,0.00,,,0.00,VWS V14.01,2013-07-23 18:59:00,
2013-07-23 14:05:00,75.3,56.5,29.94,NNW,339,3.0,4.0,52,0.00,,,0.00,VWS V14.01,2013-07-23 19:05:00,
2013-07-23 14:10:00,75.3,56.5,29.95,ESE,110,1.0,4.0,52,0.00,,,0.00,VWS V14.01,2013-07-23 19:10:00,
2013-07-23 14:15:00,75.4,57.1,29.94,West,267,1.0,5.0,53,0.00,,,0.00,VWS V14.01,2013-07-23 19:15:00,
2013-07-23 14:20:00,75.6,54.5,29.95,North,359,2.0,5.0,48,0.00,,,0.00,VWS V14.01,2013-07-23 19:20:00,
2013-07-23 14:25:00,75.7,56.3,29.95,North,354,2.0,6.0,51,0.00,,,0.00,VWS V14.01,2013-07-23 19:25:00,
2013-07-23 14:31:00,75.7,55.8,29.95,North,8,2.0,6.0,50,0.00,,,0.00,VWS V14.01,2013-07-23 19:31:00,
2013-07-23 14:36:00,75.8,56.9,29.95,NNE,18,0.0,2.0,52,0.00,,,0.00,VWS V14.01,2013-07-23 19:36:00,
2013-07-23 14:41:00,76.0,54.9,29.95,NNE,32,2.0,6.0,48,0.00,,,0.00,VWS V14.01,2013-07-23 19:41:00,
2013-07-23 14:46:00,75.9,55.4,29.95,WSW,237,1.0,6.0,49,0.00,,,0.00,VWS V14.01,2013-07-23 19:46:00,
2013-07-23 14:52:00,76.0,57.1,29.95,NNE,33,0.0,6.0,52,0.00,,,0.00,VWS V14.01,2013-07-23 19:52:00,
2013-07-23 14:57:00,75.9,55.4,29.94,NW,316,1.0,6.0,49,0.00,,,0.00,VWS V14.01,2013-07-23 19:57:00,
2013-07-23 15:02:00,75.9,56.0,29.95,North,4,0.0,6.0,50,0.00,,,0.00,VWS V14.01,2013-07-23 20:02:00,
2013-07-23 15:07:00,76.0,55.5,29.94,NNE,28,0.0,3.0,49,0.00,,,0.00,VWS V14.01,2013-07-23 20:07:00,
2013-07-23 15:13:00,76.2,55.7,29.94,WNW,285,0.0,3.0,49,0.00,,,0.00,VWS V14.01,2013-07-23 20:13:00,
2013-07-23 15:18:00,76.4,55.8,29.94,SSW,196,0.0,4.0,49,0.00,,,0.00,VWS V14.01,2013-07-23 20:18:00,
2013-07-23 15:23:00,76.4,54.7,29.95,ESE,113,1.0,4.0,47,0.00,,,0.00,VWS V14.01,2013-07-23 20:23:00,
2013-07-23 15:28:00,76.5,55.4,29.94,NW,305,2.0,5.0,48,0.00,,,0.00,VWS V14.01,2013-07-23 20:28:00,
2013-07-23 15:33:00,76.6,57.1,29.94,NW,315,2.0,5.0,51,0.00,,,0.00,VWS V14.01,2013-07-23 20:33:00,
2013-07-23 15:40:00,76.6,55.5,29.94,NE,37,0.0,6.0,48,0.00,,,0.00,VWS V14.01,2013-07-23 20:40:00,
2013-07-23 15:45:00,76.6,54.9,29.94,NNW,339,1.0,6.0,47,0.00,,,0.00,VWS V14.01,2013-07-23 20:45:00,
2013-07-23 15:50:00,76.5,54.2,29.94,North,4,3.0,6.0,46,0.00,,,0.00,VWS V14.01,2013-07-23 20:50:00,
2013-07-23 15:56:00,76.4,54.7,29.94,NNW,335,2.0,6.0,47,0.00,,,0.00,VWS V14.01,2013-07-23 20:56:00,
2013-07-23 16:01:00,76.3,55.2,29.94,East,92,1.0,6.0,48,0.00,,,0.00,VWS V14.01,2013-07-23 21:01:00,
2013-07-23 16:06:00,76.0,54.9,29.94,South,190,1.0,4.0,48,0.00,,,0.00,VWS V14.01,2013-07-23 21:06:00,
2013-07-23 16:11:00,75.8,55.3,29.94,ESE,112,1.0,4.0,49,0.00,,,0.00,VWS V14.01,2013-07-23 21:11:00,
2013-07-23 16:17:00,75.8,55.9,29.94,NNE,21,1.0,4.0,50,0.00,,,0.00,VWS V14.01,2013-07-23 21:17:00,
2013-07-23 16:22:00,75.8,57.5,29.94,NNE,18,0.0,4.0,53,0.00,,,0.00,VWS V14.01,2013-07-23 21:22:00,
2013-07-23 16:28:00,75.7,54.6,29.94,NW,320,0.0,5.0,48,0.00,,,0.00,VWS V14.01,2013-07-23 21:28:00,
2013-07-23 16:33:00,75.7,55.2,29.94,NW,313,0.0,5.0,49,0.00,,,0.00,VWS V14.01,2013-07-23 21:33:00,
2013-07-23 16:38:00,75.8,54.7,29.94,SE,130,1.0,5.0,48,0.00,,,0.00,VWS V14.01,2013-07-23 21:38:00,
2013-07-23 16:43:00,75.7,54.6,29.93,SSE,156,0.0,5.0,48,0.00,,,0.00,VWS V14.01,2013-07-23 21:43:00,
2013-07-23 16:48:00,75.7,55.8,29.93,East,93,1.0,5.0,50,0.00,,,0.00,VWS V14.01,2013-07-23 21:48:00,
2013-07-23 16:54:00,75.6,55.1,29.93,NNW,342,1.0,5.0,49,0.00,,,0.00,VWS V14.01,2013-07-23 21:54:00,
2013-07-23 17:00:00,75.6,54.5,29.93,NE,52,1.0,5.0,48,0.00,,,0.00,VWS V14.01,2013-07-23 22:00:00,
2013-07-23 17:05:00,75.6,54.0,29.93,NW,317,0.0,1.0,47,0.00,,,0.00,VWS V14.01,2013-07-23 22:05:00,
2013-07-23 17:10:00,75.5,55.6,29.93,NW,306,3.0,4.0,50,0.00,,,0.00,VWS V14.01,2013-07-23 22:10:00,
2013-07-23 17:15:00,75.5,55.0,29.94,NW,318,0.0,4.0,49,0.00,,,0.00,VWS V14.01,2013-07-23 22:15:00,
2013-07-23 17:20:00,75.3,54.8,29.93,ESE,102,1.0,4.0,49,0.00,,,0.00,VWS V14.01,2013-07-23 22:20:00,
2013-07-23 17:25:00,75.1,53.5,29.94,North,350,2.0,5.0,47,0.00,,,0.00,VWS V14.01,2013-07-23 22:25:00,
2013-07-23 17:30:00,74.9,54.5,29.94,North,359,0.0,5.0,49,0.00,,,0.00,VWS V14.01,2013-07-23 22:30:00,
2013-07-23 17:35:00,74.9,55.6,29.94,East,81,1.0,2.0,51,0.00,,,0.00,VWS V14.01,2013-07-23 22:35:00,
2013-07-23 17:41:00,74.8,55.5,29.94,North,9,2.0,4.0,51,0.00,,,0.00,VWS V14.01,2013-07-23 22:41:00,
2013-07-23 17:46:00,74.7,54.3,29.94,ENE,66,2.0,5.0,49,0.00,,,0.00,VWS V14.01,2013-07-23 22:46:00,
2013-07-23 17:51:00,74.7,54.3,29.94,NW,315,2.0,5.0,49,0.00,,,0.00,VWS V14.01,2013-07-23 22:51:00,
2013-07-23 17:57:00,74.6,54.8,29.94,NW,305,2.0,5.0,50,0.00,,,0.00,VWS V14.01,2013-07-23 22:57:00,
2013-07-23 18:02:00,74.4,55.1,29.94,North,8,2.0,5.0,51,0.00,,,0.00,VWS V14.01,2013-07-23 23:02:00,
2013-07-23 18:07:00,74.2,54.9,29.94,East,97,1.0,2.0,51,0.00,,,0.00,VWS V14.01,2013-07-23 23:07:00,
2013-07-23 18:12:00,73.9,54.7,29.94,NE,52,0.0,2.0,51,0.00,,,0.00,VWS V14.01,2013-07-23 23:12:00,
2013-07-23 18:17:00,73.7,55.5,29.94,NW,312,0.0,3.0,53,0.00,,,0.00,VWS V14.01,2013-07-23 23:17:00,
2013-07-23 18:22:00,73.4,54.2,29.94,NNE,18,0.0,4.0,51,0.00,,,0.00,VWS V14.01,2013-07-23 23:22:00,
2013-07-23 18:28:00,73.3,53.6,29.94,ENE,71,1.0,4.0,50,0.00,,,0.00,VWS V14.01,2013-07-23 23:28:00,
2013-07-23 18:33:00,73.2,54.5,29.94,NW,310,1.0,4.0,52,0.00,,,0.00,VWS V14.01,2013-07-23 23:33:00,
2013-07-23 18:38:00,73.0,54.9,29.94,NW,306,0.0,4.0,53,0.00,,,0.00,VWS V14.01,2013-07-23 23:38:00,
2013-07-23 18:43:00,72.8,54.7,29.94,West,279,0.0,4.0,53,0.00,,,0.00,VWS V14.01,2013-07-23 23:43:00,
2013-07-23 18:49:00,72.6,54.0,29.94,NNE,17,1.0,4.0,52,0.00,,,0.00,VWS V14.01,2013-07-23 23:49:00,
2013-07-23 18:54:00,72.4,53.8,29.94,NNE,29,0.0,4.0,52,0.00,,,0.00,VWS V14.01,2013-07-23 23:54:00,
2013-07-23 18:59:00,72.2,55.2,29.94,NNW,345,0.0,4.0,55,0.00,,,0.00,VWS V14.01,2013-07-23 23:59:00,
2013-07-23 19:04:00,72.0,54.5,29.94,NW,314,2.0,2.0,54,0.00,,,0.00,VWS V14.01,2013-07-24 00:04:00,
2013-07-23 19:09:00,71.9,54.4,29.94,NNE,19,1.0,5.0,54,0.00,,,0.00,VWS V14.01,2013-07-24 00:09:00,
2013-07-23 19:15:00,71.7,54.7,29.95,NNE,28,0.0,5.0,55,0.00,,,0.00,VWS V14.01,2013-07-24 00:15:00,
2013-07-23 19:20:00,71.6,54.1,29.95,North,359,1.0,5.0,54,0.00,,,0.00,VWS V14.01,2013-07-24 00:20:00,
2013-07-23 19:25:00,71.3,54.3,29.94,ENE,60,1.0,5.0,55,0.00,,,0.00,VWS V14.01,2013-07-24 00:25:00,
2013-07-23 19:30:00,71.1,54.6,29.95,NW,304,0.0,5.0,56,0.00,,,0.00,VWS V14.01,2013-07-24 00:30:00,
2013-07-23 19:35:00,71.0,55.5,29.95,North,10,0.0,2.0,58,0.00,,,0.00,VWS V14.01,2013-07-24 00:35:00,
2013-07-23 19:40:00,70.8,55.3,29.95,NNE,14,0.0,2.0,58,0.00,,,0.00,VWS V14.01,2013-07-24 00:40:00,
2013-07-23 19:46:00,70.6,55.6,29.95,NNE,16,0.0,2.0,59,0.00,,,0.00,VWS V14.01,2013-07-24 00:46:00,
2013-07-23 19:51:00,70.4,56.3,29.95,North,8,1.0,2.0,61,0.00,,,0.00,VWS V14.01,2013-07-24 00:51:00,
2013-07-23 19:56:00,70.3,56.2,29.95,NW,320,1.0,2.0,61,0.00,,,0.00,VWS V14.01,2013-07-24 00:56:00,
2013-07-23 20:01:00,70.2,55.7,29.95,NW,316,0.0,2.0,60,0.00,,,0.00,VWS V14.01,2013-07-24 01:01:00,
2013-07-23 20:07:00,70.1,55.6,29.95,ESE,109,0.0,3.0,60,0.00,,,0.00,VWS V14.01,2013-07-24 01:07:00,
2013-07-23 20:12:00,70.0,55.5,29.95,NNW,327,0.0,3.0,60,0.00,,,0.00,VWS V14.01,2013-07-24 01:12:00,
2013-07-23 20:17:00,69.8,55.8,29.95,NNW,328,0.0,3.0,61,0.00,,,0.00,VWS V14.01,2013-07-24 01:17:00,
2013-07-23 20:23:00,69.7,55.7,29.95,NNW,328,0.0,3.0,61,0.00,,,0.00,VWS V14.01,2013-07-24 01:23:00,
2013-07-23 20:28:00,69.6,56.0,29.95,NNW,331,0.0,4.0,62,0.00,,,0.00,VWS V14.01,2013-07-24 01:28:00,
2013-07-23 20:33:00,69.5,56.8,29.95,NNW,330,0.0,4.0,64,0.00,,,0.00,VWS V14.01,2013-07-24 01:33:00,
2013-07-23 20:38:00,69.4,55.4,29.95,NNW,330,0.0,1.0,61,0.00,,,0.00,VWS V14.01,2013-07-24 01:38:00,
2013-07-23 20:43:00,69.2,55.6,29.95,NNE,22,0.0,2.0,62,0.00,,,0.00,VWS V14.01,2013-07-24 01:43:00,
2013-07-23 20:48:00,69.1,56.0,29.95,NNE,22,0.0,2.0,63,0.00,,,0.00,VWS V14.01,2013-07-24 01:48:00,
2013-07-23 20:54:00,69.0,56.3,29.96,NNE,22,0.0,2.0,64,0.00,,,0.00,VWS V14.01,2013-07-24 01:54:00,
2013-07-23 20:59:00,68.8,55.7,29.96,NNE,22,0.0,2.0,63,0.00,,,0.00,VWS V14.01,2013-07-24 01:59:00,
2013-07-23 21:04:00,68.5,55.4,29.96,NNE,22,1.0,1.0,63,0.00,,,0.00,VWS V14.01,2013-07-24 02:04:00,
2013-07-23 21:10:00,68.3,56.1,29.96,NNE,22,0.0,1.0,65,0.00,,,0.00,VWS V14.01,2013-07-24 02:10:00,
2013-07-23 21:15:00,68.0,55.4,29.96,NNE,22,0.0,1.0,64,0.00,,,0.00,VWS V14.01,2013-07-24 02:15:00,
2013-07-23 21:20:00,67.8,55.2,29.96,NNE,22,0.0,1.0,64,0.00,,,0.00,VWS V14.01,2013-07-24 02:20:00,
2013-07-23 21:26:00,67.6,55.4,29.96,NNE,22,0.0,1.0,65,0.00,,,0.00,VWS V14.01,2013-07-24 02:26:00,
2013-07-23 21:32:00,67.3,55.2,29.96,NNE,22,0.0,1.0,65,0.00,,,0.00,VWS V14.01,2013-07-24 02:32:00,
2013-07-23 21:37:00,67.1,55.4,29.96,NNE,22,0.0,0.0,66,0.00,,,0.00,VWS V14.01,2013-07-24 02:37:00,
2013-07-23 21:43:00,66.8,55.1,29.96,NNE,22,0.0,0.0,66,0.00,,,0.00,VWS V14.01,2013-07-24 02:43:00,
2013-07-23 21:48:00,66.5,54.8,29.96,NNE,22,0.0,0.0,66,0.00,,,0.00,VWS V14.01,2013-07-24 02:48:00,
2013-07-23 21:54:00,66.3,55.0,29.97,NNE,22,0.0,0.0,67,0.00,,,0.00,VWS V14.01,2013-07-24 02:54:00,
2013-07-23 21:59:00,66.0,54.7,29.97,NNE,22,0.0,0.0,67,0.00,,,0.00,VWS V14.01,2013-07-24 02:59:00,
2013-07-23 22:04:00,65.7,54.9,29.97,NNE,22,0.0,0.0,68,0.00,,,0.00,VWS V14.01,2013-07-24 03:04:00,
2013-07-23 22:09:00,65.5,54.7,29.97,NNE,22,0.0,0.0,68,0.00,,,0.00,VWS V14.01,2013-07-24 03:09:00,
2013-07-23 22:14:00,65.2,54.8,29.97,NNE,22,0.0,0.0,69,0.00,,,0.00,VWS V14.01,2013-07-24 03:14:00,
2013-07-23 22:19:00,64.9,54.5,29.97,NNE,22,0.0,0.0,69,0.00,,,0.00,VWS V14.01,2013-07-24 03:19:00,
2013-07-23 22:24:00,64.7,54.7,29.97,NNE,22,0.0,0.0,70,0.00,,,0.00,VWS V14.01,2013-07-24 03:24:00,
2013-07-23 22:29:00,64.5,55.3,29.97,NNE,22,0.0,0.0,72,0.00,,,0.00,VWS V14.01,2013-07-24 03:29:00,
2013-07-23 22:35:00,64.2,55.4,29.97,NNE,22,0.0,0.0,73,0.00,,,0.00,VWS V14.01,2013-07-24 03:35:00,
2013-07-23 22:41:00,64.0,55.2,29.97,NNE,22,0.0,0.0,73,0.00,,,0.00,VWS V14.01,2013-07-24 03:41:00,
2013-07-23 22:46:00,63.8,55.0,29.97,NNE,22,0.0,0.0,73,0.00,,,0.00,VWS V14.01,2013-07-24 03:46:00,
2013-07-23 22:51:00,63.6,54.4,29.97,NNE,22,0.0,1.0,72,0.00,,,0.00,VWS V14.01,2013-07-24 03:51:00,
2013-07-23 22:56:00,63.5,54.3,29.98,NNE,22,0.0,1.0,72,0.00,,,0.00,VWS V14.01,2013-07-24 03:56:00,
2013-07-23 23:01:00,63.4,54.6,29.98,NNE,23,0.0,1.0,73,0.00,,,0.00,VWS V14.01,2013-07-24 04:01:00,
2013-07-23 23:04:00,63.3,54.5,29.98,NNE,22,0.0,1.0,73,0.00,,,0.00,VWS V14.01,2013-07-24 04:04:00,
2013-07-23 23:09:00,63.2,54.8,29.98,NNE,22,0.0,0.0,74,0.00,,,0.00,VWS V14.01,2013-07-24 04:09:00,
2013-07-23 23:14:00,63.1,54.7,29.98,NNE,22,0.0,0.0,74,0.00,,,0.00,VWS V14.01,2013-07-24 04:14:00,
2013-07-23 23:19:00,62.9,54.5,29.98,NNE,22,0.0,0.0,74,0.00,,,0.00,VWS V14.01,2013-07-24 04:19:00,
2013-07-23 23:24:00,62.8,54.4,29.98,NNE,22,0.0,0.0,74,0.00,,,0.00,VWS V14.01,2013-07-24 04:24:00,
2013-07-23 23:29:00,62.7,54.3,29.98,NNE,22,0.0,0.0,74,0.00,,,0.00,VWS V14.01,2013-07-24 04:29:00,
2013-07-23 23:34:00,62.6,54.6,29.98,NNE,22,0.0,0.0,75,0.00,,,0.00,VWS V14.01,2013-07-24 04:34:00,
2013-07-23 23:39:00,62.5,54.5,29.98,NNE,22,0.0,0.0,75,0.00,,,0.00,VWS V14.01,2013-07-24 04:39:00,
2013-07-23 23:45:00,62.3,54.7,29.98,NNE,22,0.0,0.0,76,0.00,,,0.00,VWS V14.01,2013-07-24 04:45:00,
2013-07-23 23:50:00,62.2,54.9,29.98,NNE,22,0.0,0.0,77,0.00,,,0.00,VWS V14.01,2013-07-24 04:50:00,
2013-07-23 23:55:00,62.2,54.9,29.98,NNE,22,0.0,1.0,77,0.00,,,0.00,VWS V14.01,2013-07-24 04:55:00,